Regional Weather Roundup
Issued by NWS

Home | Current Version | Previous Version | Text Only | Print | Product List | Glossary Off
Versions: 1 2 3 4 5 6 7 8 9 10 11 12 13 14 15 16 17 18 19 20 21 22 23 24 25 26 27 28 29 30 31 32 33 34 35 36 37 38 39 40 41 42 43 44 45 46 47 48 49 50

000
ASUS44 KMEG 200610
RWRTN
TENNESSEE HOURLY STATE WEATHER ROUNDUP
NATIONAL WEATHER SERVICE MEMPHIS TN
100 AM CDT SUN AUG 20 2017

TNZ002-004-019-021-049-052-054-088>092-200700-
WEST TENNESSEE

CITY           SKY/WX    TMP DP  RH WIND       PRES   REMARKS
MEMPHIS INTL   CLOUDY    80  76  87 SW3       29.99S
NWS MEMPHIS      N/A     78 N/A N/A MISG        N/A
JACKSON        CLEAR     72  72 100 CALM      30.00S FOG
DYERSBURG      CLOUDY    73  72  96 CALM      30.00S
SOMERVILLE     CLEAR     75  73  94 CALM      29.99S
COVINGTON      CLEAR     72  72 100 CALM      29.99S FOG
UNION CITY     CLEAR     70  70 100 CALM      29.99S
BOLIVAR        CLEAR     73  73 100 CALM      30.00S FOG
PARIS          CLEAR     70  68  94 CALM      30.00R
HUNTINGDON     CLEAR     72  70  94 CALM      30.00S
SELMER         CLEAR     73  72  94 CALM      30.01R
SAVANNAH       PTCLDY    73  72  94 CALM      30.00S FOG
$$

TNZ008-025-027-028-033-062-065-066-200700-
NORTH MIDDLE TENNESSEE

CITY           SKY/WX    TMP DP  RH WIND       PRES   REMARKS
NASHVILLE      PTCLDY    75  71  87 S3        30.02S
PORTLAND       PTCLDY    70  70 100 CALM      30.02S
CLARKSVILLE    CLEAR     70  68  93 CALM      30.01R
SMYRNA         CLEAR     72  71  97 SE3       30.03S
COOKEVILLE       N/A     66  66 100 CALM      30.04F
GALLATIN       PTCLDY    72  70  94 CALM      30.04S
CROSSVILLE     CLEAR     65  63  93 CALM      30.11S
$$

TNZ061-075-076-078-094-096-097-200700-
SOUTH MIDDLE TENNESSEE

CITY           SKY/WX    TMP DP  RH WIND       PRES   REMARKS
FAYETTEVILLE   PTCLDY    73  70  88 CALM      30.04S
TULLAHOMA      CLEAR     70  66  88 CALM      30.06S
WINCHESTER     CLEAR     70  66  88 CALM      30.05S
MCMINNVILLE    MOCLDY    70  70 100 CALM      30.05S VSB 1/2
COLUMBIA       MOCLDY    73  73 100 CALM      30.00S
$$

TNZ017-018-042-046-047-200700-
NORTHEAST TENNESSEE

CITY           SKY/WX    TMP DP  RH WIND       PRES   REMARKS
TRI CITIES     CLEAR     66  65  96 CALM      30.10R
ELIZABETHTON   CLEAR     66  63  88 VRB5      30.10F
$$

TNZ012-013-036-069-073-074-200700-
CENTRAL EAST TENNESSEE

CITY           SKY/WX    TMP DP  RH WIND       PRES   REMARKS
KNOXVILLE      CLEAR     71  65  81 CALM      30.05S
OAK RIDGE      CLEAR     72  68  87 CALM      30.06F
DOWNTOWN KNOXV CLEAR     70  70 100 CALM      30.05S FOG
GATLINBURG     CLEAR     66  63  88 CALM      30.06S
MORRISTOWN     PTCLDY    70  66  88 CALM      30.07R
JACKSBORO        N/A     68  68 100 CALM      30.10S FOG
$$

TNZ083-085-099-200700-
SOUTHEAST TENNESSEE

CITY           SKY/WX    TMP DP  RH WIND       PRES   REMARKS
CHATTANOOGA    CLEAR     72  68  87 CALM      30.05R
DAYTON         CLEAR     72  70  94 CALM      30.04R
$$

SKY/WX REPORTED AS FAIR MEANS FEW OR NO CLOUDS BELOW
12 THOUSAND FEET.





USA.gov is the U.S. government's official web portal to all federal, state and local government web resources and services.